Latest Weather Observations for Brisbane Airport

IDQ60801

Issued at 12:02 am EST Thursday 29 January 2015 (issued every 30 minutes, with the page automatically refreshed every 10 minutes)

About weather observations | Map of weather stations | Latest weather observations for QLD | Other Formats
Station Details ID: 040842 Name: BRISBANE AERO Lat: -27.39 Lon: 153.13 Height: 4.51 m
Data from the previous 72 hours. | See also: Recent months at Brisbane Airport
Date/Time
EST
Temp
°C
App
Temp
°C
Dew
Point
Rel
Hum
%
Delta-T
°C
Wind Press
QNH
hPa
Press
MSL
hPa
Rain
since 9 am
mm
Dir
 
Spd
km/h
Gust
km/h
Spd
kts
Gust
kts
28/11:30pm 20.9 20.4 17.0 78 2.4 SSW 15 19 8 10 1008.0 - 1.4
28/11:00pm 20.7 20.6 16.9 79 2.3 SSW 13 17 7 9 1008.2 - 1.4
28/10:00pm 21.0 20.1 16.9 77 2.5 SSW 17 20 9 11 1007.9 - 1.4
28/09:30pm 21.3 21.3 17.1 77 2.6 SSW 13 19 7 10 1008.0 - 1.4
28/09:00pm 21.2 21.0 17.5 79 2.3 SSW 15 20 8 11 1008.0 1008.0 1.4
28/08:30pm 22.2 22.1 17.0 72 3.2 S 13 17 7 9 1007.7 - 1.4
28/08:00pm 22.7 21.6 16.3 67 3.9 SSE 17 30 9 16 1007.5 - 1.4
28/07:30pm 23.0 21.8 16.1 65 4.2 SSE 17 26 9 14 1007.2 - 1.4
28/07:00pm 23.1 22.0 16.4 66 4.1 SSE 17 32 9 17 1007.4 - 1.4
28/06:30pm 23.3 22.5 17.0 67 3.9 SSE 17 26 9 14 1006.9 - 1.4
28/05:30pm 24.1 23.1 16.6 63 4.6 S 17 30 9 16 1006.1 - 1.4
28/05:00pm 24.2 23.8 17.1 64 4.4 S 15 28 8 15 1005.9 - 1.4
28/04:30pm 24.2 24.0 16.7 63 4.6 SSE 13 20 7 11 1005.8 - 1.4
28/04:00pm 23.7 22.9 17.1 66 4.1 S 17 26 9 14 1005.6 - 1.4
28/03:30pm 23.1 22.6 18.7 76 2.8 SSE 19 28 10 15 1005.5 - 1.4
28/03:00pm 22.4 22.0 18.9 80 2.2 SSE 19 32 10 17 1005.5 1005.5 0.4
28/02:30pm 24.7 24.0 18.6 69 3.9 ESE 20 32 11 17 1005.3 - 0.0
28/02:00pm 25.9 26.7 17.3 59 5.4 SE 9 13 5 7 1005.5 - 0.0
28/01:00pm 25.5 25.3 17.5 61 5.0 S 15 22 8 12 1006.1 - 0.0
28/12:30pm 25.1 25.1 18.0 64 4.5 SSW 15 22 8 12 1006.3 - 0.0
28/12:00pm 24.6 24.1 17.7 65 4.3 SSW 17 24 9 13 1006.4 1006.4 0.0
28/11:30am 24.8 24.6 18.5 68 4.0 S 17 24 9 13 1006.4 - 0.0
28/11:00am 23.8 23.6 18.4 72 3.4 S 17 22 9 12 1006.6 - 0.0
28/10:30am 23.4 22.4 18.0 71 3.4 S 20 32 11 17 1006.6 - 0.0
28/10:00am 22.5 21.9 18.5 78 2.5 S 19 28 10 15 1006.4 - 0.0
28/09:00am 20.9 20.4 19.0 89 1.2 SSW 20 28 11 15 1006.5 1006.5 3.2
28/08:30am 20.9 20.8 18.7 87 1.4 SSW 17 24 9 13 1006.4 - 3.0
28/08:00am 20.5 21.0 18.4 88 1.3 S 13 20 7 11 1005.8 - 3.0
28/07:30am 19.8 20.7 18.4 92 0.9 SSW 11 15 6 8 1006.1 - 3.0
28/07:00am 19.6 20.1 18.3 92 0.8 SSW 13 19 7 10 1006.1 - 2.8
28/06:30am 19.6 19.4 17.5 88 1.3 SSW 15 19 8 10 1005.9 - 2.6
28/05:30am 19.6 19.4 17.6 88 1.2 SSW 15 19 8 10 1005.5 - 2.6
28/05:00am 19.8 20.0 17.7 88 1.3 SSW 13 19 7 10 1005.3 - 2.6
28/04:30am 19.9 20.0 18.3 90 1.0 SSW 15 19 8 10 1005.3 - 2.6
28/04:00am 20.2 20.4 18.6 90 1.0 SSW 15 19 8 10 1005.1 - 2.6
28/03:30am 20.5 21.8 19.2 92 0.8 S 11 15 6 8 1005.1 - 2.6
28/03:00am 20.9 21.9 18.7 87 1.4 S 11 19 6 10 1005.3 1005.3 2.4
28/02:30am 20.9 21.8 18.3 85 1.6 S 11 15 6 8 1005.5 - 2.4
28/02:00am 20.9 21.6 18.8 88 1.3 S 13 24 7 13 1005.7 - 2.4
28/01:00am 21.6 21.7 19.9 90 1.1 S 19 28 10 15 1006.5 - 1.8
28/12:30am 22.1 23.8 20.2 89 1.2 S 11 17 6 9 1007.0 - 1.8
28/12:00am 22.4 23.9 20.6 89 1.2 S 13 24 7 13 1007.1 1007.1 1.6
 
Date/Time
EST
Temp
°C
App
Temp
°C
Dew
Point
Rel
Hum
%
Delta-T
°C
Wind Press
QNH
hPa
Press
MSL
hPa
Rain
since 9 am
mm
Dir
 
Spd
km/h
Gust
km/h
Spd
kts
Gust
kts
27/11:30pm 23.5 25.2 20.1 81 2.2 SSE 11 17 6 9 1007.1 - 1.0
27/11:00pm 23.7 25.2 19.8 79 2.5 ESE 11 19 6 10 1007.1 - 0.8
27/10:30pm 23.7 25.0 19.2 76 2.9 SE 11 22 6 12 1007.1 - 0.6
27/10:00pm 24.0 25.6 20.0 78 2.6 ESE 11 17 6 9 1007.3 - 0.4
27/09:30pm 24.8 26.0 20.0 74 3.1 ESE 13 19 7 10 1007.6 - 0.0
27/09:00pm 25.1 25.7 20.2 74 3.2 ESE 17 26 9 14 1007.1 1007.1 0.0
27/08:30pm 25.2 25.6 19.8 72 3.5 E 17 26 9 14 1006.9 - 0.0
27/08:00pm 25.5 25.8 19.5 69 3.9 E 17 30 9 16 1006.5 - 0.0
27/07:30pm 25.4 25.8 19.9 71 3.6 E 17 22 9 12 1006.1 - 0.0
27/07:00pm 25.6 25.8 19.4 68 4.0 E 17 26 9 14 1006.2 - 0.0
27/06:30pm 25.7 26.0 19.5 68 4.0 ESE 17 28 9 15 1005.9 - 0.0
27/06:00pm 25.9 26.0 19.1 66 4.4 ESE 17 30 9 16 1005.6 1005.6 0.0
27/05:30pm 26.2 25.6 18.5 62 4.9 E 19 33 10 18 1005.0 - 0.0
27/05:00pm 26.5 26.3 19.4 65 4.6 ESE 19 30 10 16 1004.9 - 0.0
27/04:30pm 26.5 26.2 19.6 66 4.5 ESE 20 33 11 18 1004.7 - 0.0
27/04:00pm 26.9 26.9 20.2 66 4.4 E 20 32 11 17 1004.7 - 0.0
27/03:30pm 27.5 27.6 21.2 68 4.2 E 22 37 12 20 1005.0 - 0.0
27/03:00pm 27.1 27.4 20.7 68 4.2 E 20 32 11 17 1005.3 1005.3 0.0
27/02:30pm 28.4 28.8 21.0 64 4.9 E 20 30 11 16 1005.6 - 0.0
27/02:00pm 28.4 29.2 21.7 67 4.5 ESE 20 30 11 16 1005.8 - 0.0
27/01:30pm 27.7 28.1 20.7 65 4.6 E 19 30 10 16 1006.2 - 0.0
27/01:00pm 28.8 29.4 21.0 62 5.2 E 19 32 10 17 1006.4 - 0.0
27/12:30pm 28.1 28.5 21.0 65 4.7 E 20 32 11 17 1006.7 - 0.0
27/12:00pm 27.6 28.5 20.8 66 4.5 ESE 17 28 9 15 1007.2 1007.2 0.0
27/11:30am 28.3 28.4 21.1 65 4.8 ESE 22 33 12 18 1007.7 - 0.0
27/11:00am 29.0 30.0 22.2 66 4.6 ESE 20 32 11 17 1007.9 - 0.0
27/10:30am 27.6 27.5 20.0 63 5.0 ESE 20 35 11 19 1008.2 - 0.0
27/10:00am 28.4 29.5 21.9 68 4.4 ESE 19 30 10 16 1008.1 - 0.0
27/09:30am 28.0 29.2 22.2 70 3.9 ESE 19 30 10 16 1008.2 - 0.0
27/09:00am 28.7 30.5 21.9 66 4.6 ESE 15 22 8 12 1007.8 1007.8 0.0
27/08:30am 27.0 28.0 21.0 69 4.0 ESE 17 26 9 14 1007.8 - 0.0
27/08:00am 27.7 29.4 21.7 70 4.0 E 15 24 8 13 1007.7 - 0.0
27/07:30am 27.2 28.8 21.5 71 3.8 E 15 22 8 12 1007.7 - 0.0
27/07:00am 26.8 28.5 21.6 73 3.5 E 15 22 8 12 1007.5 - 0.0
27/06:30am 26.5 28.8 22.0 76 3.0 E 13 20 7 11 1007.6 - 0.0
27/06:00am 25.9 28.0 21.7 77 2.8 E 13 19 7 10 1007.5 1007.5 0.0
27/05:30am 25.4 28.2 21.5 79 2.6 E 9 15 5 8 1007.1 - 0.0
27/05:00am 25.5 27.5 21.6 79 2.6 ESE 13 17 7 9 1006.9 - 0.0
27/04:30am 25.6 27.5 21.4 77 2.8 ESE 13 20 7 11 1006.5 - 0.0
27/04:00am 25.6 27.0 21.1 76 3.0 ESE 15 28 8 15 1006.4 - 0.0
27/03:30am 25.4 27.2 21.2 77 2.8 ESE 13 24 7 13 1006.2 - 0.0
27/03:00am 25.7 26.9 21.5 77 2.8 ESE 17 26 9 14 1006.1 1006.1 0.0
27/02:30am 25.9 27.0 21.9 78 2.7 ESE 19 28 10 15 1005.9 - 0.0
27/02:00am 25.9 28.2 22.0 79 2.6 ESE 13 20 7 11 1006.3 - 0.0
27/01:30am 26.0 28.3 22.1 79 2.6 ESE 13 20 7 11 1006.4 - 0.0
27/01:00am 25.9 29.1 22.3 80 2.4 SE 9 17 5 9 1006.9 - 0.0
27/12:30am 26.1 29.0 22.4 80 2.5 E 11 17 6 9 1007.4 - 0.0
27/12:00am 26.1 28.8 22.2 79 2.6 E 11 15 6 8 1007.7 1007.7 0.0
 
Date/Time
EST
Temp
°C
App
Temp
°C
Dew
Point
Rel
Hum
%
Delta-T
°C
Wind Press
QNH
hPa
Press
MSL
hPa
Rain
since 9 am
mm
Dir
 
Spd
km/h
Gust
km/h
Spd
kts
Gust
kts
26/11:30pm 26.2 29.0 22.3 79 2.6 E 11 19 6 10 1008.2 - 0.0
26/11:00pm 26.3 28.6 22.1 77 2.8 ESE 13 19 7 10 1008.3 - 0.0
26/10:30pm 26.4 28.5 22.4 78 2.7 ESE 15 20 8 11 1008.3 - 0.0
26/10:00pm 26.5 28.7 21.9 76 3.1 ESE 13 20 7 11 1008.3 - 0.0
26/09:30pm 26.6 28.2 22.1 76 3.0 ESE 17 26 9 14 1008.4 - 0.0
26/09:00pm 26.6 28.1 22.0 76 3.1 ESE 17 28 9 15 1008.4 1008.4 0.0
26/08:30pm 26.8 28.9 22.4 77 3.0 SE 15 24 8 13 1008.6 - 0.0
26/08:00pm 26.9 28.1 22.1 75 3.2 ESE 19 30 10 16 1008.6 - 0.0
26/07:30pm 27.0 28.3 22.6 77 3.0 ESE 20 35 11 19 1008.2 - 0.0
26/07:00pm 27.1 28.7 22.8 77 2.9 SE 19 32 10 17 1008.0 - 0.0
26/06:30pm 27.2 28.7 23.1 78 2.8 ESE 20 32 11 17 1006.9 - 0.0
26/06:00pm 27.3 28.8 23.7 81 2.5 ESE 22 33 12 18 1006.3 1006.3 0.0
26/05:30pm 27.8 29.7 23.7 78 2.8 ESE 20 32 11 17 1006.4 - 0.0
26/05:00pm 28.1 31.3 24.4 80 2.6 ESE 15 28 8 15 1006.1 - 0.0
26/04:30pm 28.4 31.0 23.9 76 3.1 SE 17 26 9 14 1005.5 - 0.0
26/04:00pm 28.8 31.0 23.9 75 3.4 ESE 19 35 10 19 1005.3 - 0.0
26/03:30pm 29.8 31.4 22.9 66 4.7 E 19 30 10 16 1005.5 - 0.0
26/03:00pm 30.1 33.0 24.5 72 3.9 ESE 17 28 9 15 1005.3 1005.3 0.0
26/02:30pm 29.2 31.8 24.0 73 3.6 ESE 17 28 9 15 1005.3 - 0.0
26/02:00pm 29.4 32.5 24.8 76 3.2 E 17 30 9 16 1005.1 - 0.0
26/01:30pm 30.3 32.9 24.6 71 4.0 E 19 30 10 16 1005.3 - 0.0
26/01:00pm 30.2 33.3 24.8 73 3.8 ESE 17 30 9 16 1005.8 - 0.0
26/12:30pm 29.5 32.1 23.9 72 3.9 ESE 17 28 9 15 1005.9 - 0.0
26/12:00pm 28.6 31.3 24.1 76 3.1 ESE 17 30 9 16 1006.6 1006.6 0.0
26/11:30am 29.5 31.6 23.7 71 4.0 ESE 19 30 10 16 1006.7 - 0.0
26/11:00am 29.6 32.6 24.6 74 3.5 E 17 28 9 15 1006.9 - 0.0
26/10:30am 29.5 33.4 25.4 78 2.9 ENE 15 22 8 12 1007.0 - 0.0
26/10:00am 29.6 33.3 25.1 77 3.2 ENE 15 20 8 11 1006.9 - 0.0
26/09:30am 29.4 33.5 25.7 80 2.6 ENE 15 20 8 11 1007.0 - 0.0
26/09:00am 29.2 34.1 25.2 79 2.8 ESE 9 17 5 9 1007.1 1007.1 0.0
26/08:30am 29.1 34.3 25.1 79 2.8 NNW 7 11 4 6 1007.0 - 0.0
26/08:00am 28.0 33.1 24.6 82 2.4 NNW 6 11 3 6 1006.9 - 0.0
26/07:30am 27.3 31.4 24.0 82 2.3 SSW 9 13 5 7 1006.8 - 0.0
26/07:00am 26.6 31.2 24.1 86 1.7 SSE 7 13 4 7 1006.7 - 0.0
26/06:30am 26.1 30.9 24.1 89 1.4 SSE 6 7 3 4 1006.5 - 0.0
26/06:00am 25.4 30.5 24.1 92 0.9 SE 4 7 2 4 1006.1 1006.1 0.0
26/05:30am 25.5 31.3 24.6 95 0.6 ESE 2 7 1 4 1005.7 - 0.0
26/05:00am 25.8 30.9 24.9 95 0.6 SSE 7 11 4 6 1005.3 - 0.0
26/04:30am 25.9 30.8 25.2 96 0.5 S 9 11 5 6 1005.1 - 0.0
26/04:00am 26.0 32.7 25.4 96 0.4 CALM 0 0 0 0 1005.0 - 0.0
26/03:30am 26.4 33.4 25.8 96 0.4 CALM 0 0 0 0 1004.8 - 0.0
26/03:00am 26.6 32.5 25.9 96 0.5 ENE 6 7 3 4 1004.9 1004.9 0.0
26/02:30am 26.8 32.6 26.0 95 0.6 NE 7 9 4 5 1005.0 - 0.0
26/02:00am 26.8 32.2 26.0 95 0.6 NE 9 11 5 6 1005.1 - 0.0
26/01:30am 26.7 31.7 26.0 96 0.5 NE 11 13 6 7 1005.3 - 0.0
26/01:20am 26.7 32.0 25.9 95 0.6 ENE 9 11 5 6 1005.4 - 0.0
26/01:00am 26.8 33.9 26.0 95 0.6 CALM 0 0 0 0 1005.6 - 0.0
26/12:30am 27.0 33.7 26.0 94 0.7 E 2 9 1 5 1006.0 - 0.0
26/12:23am 27.0 34.1 26.0 94 0.7 CALM 0 0 0 0 1006.1 - 0.0

Other Formats:

Comma delimited format used in spreadsheet applications
http://www.bom.gov.au/fwo/IDQ60801/IDQ60801.94578.axf

JavaScript Object Notation format (JSON) in row-major order
http://www.bom.gov.au/fwo/IDQ60801/IDQ60801.94578.json